{"data":{"norad_id":69484,"epoch":"2026-09-20T00:45:58.463424Z","epoch_age_seconds":65856,"freshness":"FRESH","line1":"1 69484U 26131G   26263.03192666  .00015541  00000+0  48251-3 0  9994","line2":"2 69484  97.2843 283.8733 0002357 107.3316 252.8184 15.33456863 16829","mean_motion":15.33456863,"eccentricity":0.0002357,"inclination_deg":97.2843,"raan_deg":283.8733,"arg_perigee_deg":107.3316,"mean_anomaly_deg":252.8184,"bstar":0.00048251,"rev_number":1682,"period_min":93.905478187553,"perigee_km":463.89483166608,"apogee_km":467.12092586193,"semimajor_km":6843.644878764,"source":"CELESTRAK","updated_at":"2026-09-20T09:00:44.206447Z"}}